AEE214 LGAV-LGRP

Flight info

Callsign AEE214
Flight time 0h 42m
Altitude 31000
Route KEA UL995 CODIC
Aircraft A320/M-SDE3FGHIRWY/LB1

Departure

Time 2026-05-06 19:16
Airport Athens Eleftherios Venizelos International Airport (LGAV)

Arrival

Time 2026-05-06 19:59
Airport Rhodes International Airport "Diagoras" (LGRP)
Time Latitude Longitude Altitude Speed Heading
2026-05-06 18:49 37.93114 23.94415 301 ft 0 kts 217°
2026-05-06 19:08 37.93130 23.94430 302 ft 4 kts 211°
2026-05-06 19:08 37.93154 23.94445 301 ft 4 kts 197°
2026-05-06 19:08 37.93180 23.94449 301 ft 4 kts 159°
2026-05-06 19:08 37.93192 23.94439 302 ft 1 kts 127°
2026-05-06 19:09 37.93194 23.94437 302 ft 0 kts 127°
2026-05-06 19:12 37.93186 23.94451 301 ft 6 kts 127°
2026-05-06 19:12 37.93152 23.94508 301 ft 9 kts 127°
2026-05-06 19:12 37.93108 23.94574 301 ft 11 kts 144°
2026-05-06 19:13 37.93035 23.94552 304 ft 12 kts 217°
2026-05-06 19:13 37.92960 23.94481 301 ft 14 kts 217°
2026-05-06 19:13 37.92884 23.94408 302 ft 11 kts 216°
2026-05-06 19:13 37.92816 23.94344 303 ft 13 kts 216°
2026-05-06 19:14 37.92738 23.94269 302 ft 15 kts 217°
2026-05-06 19:14 37.92657 23.94196 302 ft 10 kts 205°
2026-05-06 19:14 37.92593 23.94231 304 ft 11 kts 128°
2026-05-06 19:14 37.92542 23.94311 306 ft 11 kts 127°
2026-05-06 19:15 37.92500 23.94384 308 ft 8 kts 127°
2026-05-06 19:15 37.92483 23.94447 308 ft 8 kts 70°
2026-05-06 19:15 37.92537 23.94503 307 ft 12 kts 36°
2026-05-06 19:15 37.92699 23.94654 304 ft 59 kts 36°
2026-05-06 19:16 37.93210 23.95140 296 ft 119 kts 37°
2026-05-06 19:16 37.94006 23.95888 284 ft 162 kts 35°
2026-05-06 19:16 37.94955 23.96790 724 ft 171 kts 37°
2026-05-06 19:16 37.95888 23.97742 1353 ft 175 kts 40°
2026-05-06 19:17 37.96839 23.98703 1995 ft 175 kts 37°
2026-05-06 19:17 37.97861 23.99673 2346 ft 193 kts 37°
2026-05-06 19:17 37.98998 24.00745 2584 ft 215 kts 38°
2026-05-06 19:17 38.00012 24.02265 2837 ft 240 kts 68°
2026-05-06 19:18 38.00207 24.04417 3219 ft 260 kts 104°
2026-05-06 19:18 37.99359 24.06451 3915 ft 266 kts 128°
2026-05-06 19:18 37.98203 24.08315 4800 ft 271 kts 130°
2026-05-06 19:18 37.96999 24.10169 5646 ft 275 kts 130°
2026-05-06 19:19 37.95768 24.12044 6517 ft 278 kts 130°
2026-05-06 19:19 37.94508 24.13966 7333 ft 282 kts 130°
2026-05-06 19:19 37.93251 24.15894 8125 ft 286 kts 129°
2026-05-06 19:19 37.91980 24.17856 8940 ft 290 kts 129°
2026-05-06 19:20 37.90696 24.19855 9735 ft 294 kts 129°
2026-05-06 19:20 37.89392 24.21888 10377 ft 303 kts 129°
2026-05-06 19:20 37.88012 24.24039 10570 ft 327 kts 129°
2026-05-06 19:20 37.86531 24.26347 10761 ft 348 kts 129°
2026-05-06 19:21 37.84978 24.28764 11259 ft 357 kts 129°
2026-05-06 19:21 37.83397 24.31220 11879 ft 362 kts 129°
2026-05-06 19:21 37.81795 24.33705 12500 ft 367 kts 129°
2026-05-06 19:21 37.80169 24.36226 13112 ft 372 kts 129°
2026-05-06 19:22 37.78505 24.38806 13741 ft 377 kts 129°
2026-05-06 19:22 37.76836 24.41388 14302 ft 381 kts 129°
2026-05-06 19:22 37.75123 24.44036 14851 ft 385 kts 129°
2026-05-06 19:22 37.73420 24.46673 15387 ft 390 kts 129°
2026-05-06 19:23 37.71697 24.49337 15912 ft 394 kts 129°
2026-05-06 19:23 37.69954 24.52031 16427 ft 398 kts 129°
2026-05-06 19:23 37.68195 24.54744 16947 ft 402 kts 129°
2026-05-06 19:23 37.66410 24.57494 17473 ft 407 kts 129°
2026-05-06 19:24 37.64606 24.60269 18005 ft 411 kts 129°
2026-05-06 19:24 37.62780 24.63074 18515 ft 415 kts 129°
2026-05-06 19:24 37.60943 24.65893 18992 ft 419 kts 129°
2026-05-06 19:24 37.59083 24.68743 19479 ft 422 kts 129°
2026-05-06 19:25 37.57211 24.71614 19986 ft 425 kts 128°
2026-05-06 19:25 37.55324 24.74508 20492 ft 428 kts 128°
2026-05-06 19:25 37.53431 24.77417 20963 ft 432 kts 128°
2026-05-06 19:25 37.51518 24.80355 21457 ft 435 kts 128°
2026-05-06 19:26 37.49593 24.83305 21895 ft 438 kts 128°
2026-05-06 19:26 37.47649 24.86275 22323 ft 441 kts 128°
2026-05-06 19:26 37.45690 24.89259 22759 ft 444 kts 128°
2026-05-06 19:26 37.43718 24.92263 23193 ft 447 kts 128°
2026-05-06 19:27 37.41703 24.95333 23652 ft 450 kts 128°
2026-05-06 19:27 37.39730 24.98333 24005 ft 453 kts 128°
2026-05-06 19:27 37.37754 25.01488 24373 ft 454 kts 122°
2026-05-06 19:27 37.36166 25.04913 24721 ft 455 kts 113°
2026-05-06 19:28 37.34998 25.08621 25066 ft 455 kts 105°
2026-05-06 19:28 37.33996 25.12397 25414 ft 457 kts 106°
2026-05-06 19:28 37.32987 25.16186 25744 ft 460 kts 106°
2026-05-06 19:28 37.31967 25.20007 26091 ft 462 kts 106°
2026-05-06 19:29 37.31288 25.22538 26317 ft 464 kts 106°
2026-05-06 19:29 37.30251 25.26388 26665 ft 466 kts 106°
2026-05-06 19:29 37.29209 25.30260 27010 ft 469 kts 106°
2026-05-06 19:29 37.28160 25.34145 27361 ft 471 kts 106°
2026-05-06 19:30 37.27088 25.38037 27704 ft 474 kts 108°
2026-05-06 19:30 37.25916 25.41938 28045 ft 477 kts 109°
2026-05-06 19:30 37.24672 25.45801 28383 ft 480 kts 110°
2026-05-06 19:30 37.23374 25.49677 28715 ft 483 kts 111°
2026-05-06 19:31 37.22038 25.53628 29075 ft 485 kts 111°
2026-05-06 19:31 37.20735 25.57459 29549 ft 484 kts 111°
2026-05-06 19:31 37.18113 25.65211 30447 ft 482 kts 111°
2026-05-06 19:32 37.16801 25.69131 30854 ft 482 kts 111°
2026-05-06 19:32 37.15521 25.72972 31051 ft 483 kts 110°
2026-05-06 19:32 37.12916 25.80804 31096 ft 484 kts 110°
2026-05-06 19:33 37.10310 25.88580 31100 ft 484 kts 111°
2026-05-06 19:33 37.07679 25.96363 31099 ft 485 kts 111°
2026-05-06 19:34 37.05058 26.04122 31098 ft 485 kts 111°
2026-05-06 19:34 37.02430 26.11915 31100 ft 485 kts 111°
2026-05-06 19:35 36.99794 26.19674 31102 ft 485 kts 111°
2026-05-06 19:35 36.97152 26.27429 31098 ft 485 kts 111°
2026-05-06 19:36 36.94511 26.35207 31103 ft 485 kts 111°
2026-05-06 19:36 36.91863 26.43026 31097 ft 486 kts 111°
2026-05-06 19:37 36.89241 26.50750 31097 ft 486 kts 111°
2026-05-06 19:37 36.86574 26.58560 31099 ft 486 kts 111°
2026-05-06 19:38 36.85250 26.62420 30557 ft 484 kts 111°
2026-05-06 19:38 36.83917 26.66292 29727 ft 486 kts 111°
2026-05-06 19:38 36.82582 26.70160 29095 ft 482 kts 111°
2026-05-06 19:38 36.81265 26.73979 28518 ft 478 kts 111°
2026-05-06 19:39 36.79958 26.77772 27935 ft 473 kts 111°
2026-05-06 19:39 36.78657 26.81555 27078 ft 476 kts 111°
2026-05-06 19:39 36.77350 26.85343 26415 ft 474 kts 110°
2026-05-06 19:39 36.76046 26.89111 25815 ft 471 kts 110°
2026-05-06 19:40 36.74752 26.92844 25244 ft 467 kts 110°
2026-05-06 19:40 36.73448 26.96596 24688 ft 463 kts 110°
2026-05-06 19:40 36.72174 27.00264 24143 ft 459 kts 110°
2026-05-06 19:40 36.70911 27.03904 23590 ft 456 kts 110°
2026-05-06 19:41 36.69658 27.07508 22962 ft 452 kts 110°
2026-05-06 19:41 36.68415 27.11073 22372 ft 447 kts 110°
2026-05-06 19:41 36.67181 27.14615 21818 ft 443 kts 111°
2026-05-06 19:41 36.65960 27.18112 21281 ft 439 kts 111°
2026-05-06 19:42 36.64747 27.21582 20761 ft 434 kts 111°
2026-05-06 19:42 36.63534 27.25052 20250 ft 431 kts 111°
2026-05-06 19:42 36.62342 27.28457 19767 ft 427 kts 111°
2026-05-06 19:42 36.61157 27.31829 19294 ft 423 kts 111°
2026-05-06 19:43 36.59982 27.35164 18812 ft 419 kts 112°
2026-05-06 19:43 36.58798 27.38519 18250 ft 416 kts 112°
2026-05-06 19:43 36.57637 27.41810 17435 ft 420 kts 112°
2026-05-06 19:43 36.56459 27.45147 16815 ft 417 kts 112°
2026-05-06 19:44 36.55299 27.48432 16241 ft 414 kts 112°
2026-05-06 19:44 36.54154 27.51687 15682 ft 410 kts 112°
2026-05-06 19:44 36.52999 27.54969 15107 ft 407 kts 112°
2026-05-06 19:44 36.51907 27.58064 14583 ft 403 kts 112°
2026-05-06 19:45 36.50776 27.61250 14109 ft 397 kts 112°
2026-05-06 19:45 36.49675 27.64341 13724 ft 390 kts 112°
2026-05-06 19:45 36.48585 27.67401 13198 ft 385 kts 112°
2026-05-06 19:45 36.47508 27.70428 12660 ft 381 kts 112°
2026-05-06 19:46 36.46439 27.73432 12152 ft 377 kts 112°
2026-05-06 19:46 36.45412 27.76318 11647 ft 373 kts 112°
2026-05-06 19:46 36.44354 27.79287 11199 ft 369 kts 112°
2026-05-06 19:46 36.43322 27.82173 10803 ft 365 kts 112°
2026-05-06 19:47 36.42295 27.85045 10293 ft 362 kts 112°
2026-05-06 19:47 36.41274 27.87895 9826 ft 359 kts 112°
2026-05-06 19:47 36.40269 27.90705 9322 ft 355 kts 112°
2026-05-06 19:47 36.39276 27.93475 8845 ft 351 kts 112°
2026-05-06 19:48 36.38285 27.96233 8585 ft 341 kts 112°
2026-05-06 19:48 36.37320 27.98914 8457 ft 328 kts 112°
2026-05-06 19:48 36.36407 28.01452 8328 ft 317 kts 112°
2026-05-06 19:48 36.35524 28.03907 8202 ft 306 kts 112°
2026-05-06 19:49 36.34669 28.06282 8075 ft 297 kts 112°
2026-05-06 19:49 36.33847 28.08589 7912 ft 289 kts 109°
2026-05-06 19:49 36.33516 28.10978 7547 ft 278 kts 83°
2026-05-06 19:49 36.33804 28.13328 6976 ft 275 kts 76°
2026-05-06 19:50 36.34200 28.15631 6445 ft 272 kts 76°
2026-05-06 19:50 36.34610 28.17915 5889 ft 270 kts 76°
2026-05-06 19:50 36.35022 28.20181 5453 ft 270 kts 75°
2026-05-06 19:50 36.35433 28.22437 5160 ft 268 kts 75°
2026-05-06 19:51 36.35842 28.24693 4857 ft 267 kts 75°
2026-05-06 19:51 36.36246 28.26927 4477 ft 263 kts 75°
2026-05-06 19:51 36.36628 28.29066 4325 ft 245 kts 75°
2026-05-06 19:51 36.36898 28.30602 4226 ft 231 kts 75°
2026-05-06 19:52 36.37016 28.31277 4181 ft 225 kts 75°
2026-05-06 19:52 36.37334 28.33118 3958 ft 213 kts 75°
2026-05-06 19:52 36.37653 28.34890 3575 ft 209 kts 69°
2026-05-06 19:52 36.38461 28.36306 3292 ft 198 kts 29°
2026-05-06 19:53 36.39724 28.36777 3092 ft 191 kts
2026-05-06 19:53 36.41021 28.36507 2691 ft 197 kts 342°
2026-05-06 19:53 36.42337 28.35909 2395 ft 197 kts 339°
2026-05-06 19:53 36.43196 28.35490 2212 ft 197 kts 339°
2026-05-06 19:54 36.44462 28.34864 2040 ft 195 kts 335°
2026-05-06 19:54 36.45583 28.33909 1999 ft 197 kts 315°
2026-05-06 19:54 36.46369 28.32507 2003 ft 200 kts 295°
2026-05-06 19:54 36.46699 28.30840 2003 ft 196 kts 274°
2026-05-06 19:55 36.46537 28.29213 1995 ft 186 kts 255°
2026-05-06 19:55 36.46097 28.27696 2035 ft 187 kts 253°
2026-05-06 19:55 36.45656 28.26178 2011 ft 187 kts 253°
2026-05-06 19:55 36.45216 28.24662 2002 ft 187 kts 253°
2026-05-06 19:56 36.44774 28.23143 2004 ft 185 kts 253°
2026-05-06 19:56 36.44359 28.21723 1875 ft 166 kts 253°
2026-05-06 19:56 36.43985 28.20442 1717 ft 152 kts 254°
2026-05-06 19:56 36.43635 28.19240 1519 ft 145 kts 253°
2026-05-06 19:57 36.43295 28.18071 1339 ft 143 kts 253°
2026-05-06 19:57 36.42958 28.16917 1144 ft 141 kts 252°
2026-05-06 19:57 36.42624 28.15770 976 ft 141 kts 253°
2026-05-06 19:57 36.42291 28.14614 765 ft 139 kts 251°
2026-05-06 19:58 36.41970 28.13500 589 ft 138 kts 251°
2026-05-06 19:58 36.41643 28.12365 420 ft 137 kts 250°
2026-05-06 19:58 36.41320 28.11253 243 ft 137 kts 248°
2026-05-06 19:58 36.40989 28.10146 51 ft 136 kts 248°
2026-05-06 19:59 36.40693 28.09141 31 ft 99 kts 250°
2026-05-06 19:59 36.40558 28.08693 29 ft 22 kts 250°
2026-05-06 19:59 36.40485 28.08630 28 ft 12 kts 142°
2026-05-06 19:59 36.40454 28.08703 28 ft 10 kts 114°
2026-05-06 20:00 36.40423 28.08784 28 ft 7 kts 121°
2026-05-06 20:00 36.40402 28.08834 28 ft 6 kts 106°
2026-05-06 20:00 36.40398 28.08891 28 ft 8 kts 94°
2026-05-06 20:00 36.40397 28.08967 28 ft 10 kts 85°
2026-05-06 20:01 36.40415 28.09058 28 ft 11 kts 70°
2026-05-06 20:01 36.40438 28.09139 28 ft 10 kts 70°
2026-05-06 20:01 36.40452 28.09197 28 ft 6 kts 95°
2026-05-06 20:01 36.40415 28.09221 28 ft 6 kts 160°
2026-05-06 20:02 36.40397 28.09229 28 ft 4 kts 160°
2026-05-06 20:02 36.40387 28.09233 28 ft 0 kts 161°
2026-05-06 20:07 36.40588 28.08900 30 ft 0 kts 250°
2026-05-06 20:08 36.40588 28.08901 30 ft 0 kts 242°
2026-05-06 20:08 36.40967 28.10140 116 ft 897 kts 252°
2026-05-06 20:08 36.41461 28.11667 281 ft 1145 kts 247°
2026-05-06 20:09 36.41561 28.11947 272 ft 0 kts 248°
2026-05-06 20:09 36.41809 28.12691 457 ft 177 kts 248°
2026-05-06 20:09 36.41764 28.12550 459 ft 182 kts 248°
2026-05-06 20:10 36.42115 28.13972 458 ft 0 kts 248°
2026-05-06 20:10 36.42092 28.13901 465 ft 184 kts 248°
2026-05-06 20:10 36.42138 28.14171 587 ft 1624 kts 250°
2026-05-06 20:10 36.41913 28.13382 790 ft 180 kts 252°
2026-05-06 20:11 36.42156 28.14336 813 ft 147 kts 256°
2026-05-06 20:11 36.41897 28.13187 687 ft 133 kts 251°
2026-05-06 20:11 36.41584 28.12124 433 ft 130 kts 249°
2026-05-06 20:11 36.41259 28.11060 203 ft 132 kts 248°
2026-05-06 20:12 36.40945 28.09998 41 ft 127 kts 249°
2026-05-06 20:12 36.40675 28.09087 31 ft 97 kts 249°
2026-05-06 20:12 36.40515 28.08555 28 ft 10 kts 251°
2026-05-06 20:12 36.42245 28.14724 811 ft 156 kts 251°
2026-05-06 20:13 36.41959 28.13541 496 ft 137 kts 256°
2026-05-06 20:13 36.41704 28.12438 273 ft 133 kts 246°
2026-05-06 20:13 36.41351 28.11375 227 ft 135 kts 248°
2026-05-06 20:13 36.41037 28.10307 59 ft 128 kts 248°
2026-05-06 20:14 36.40754 28.09353 29 ft 102 kts 250°
2026-05-06 20:14 36.40638 28.08963 29 ft 14 kts 250°
2026-05-06 20:14 36.41827 28.12879 300 ft 131 kts 251°
2026-05-06 20:14 36.41496 28.11814 266 ft 131 kts 246°
2026-05-06 20:15 36.41162 28.10738 141 ft 131 kts 249°
2026-05-06 20:15 36.40863 28.09723 30 ft 117 kts 249°
2026-05-06 20:15 36.40677 28.09094 31 ft 58 kts 250°
2026-05-06 20:15 36.41331 28.11312 223 ft 135 kts 248°
2026-05-06 20:16 36.41022 28.10257 59 ft 128 kts 248°
2026-05-06 20:16 36.40744 28.09318 31 ft 101 kts 250°
2026-05-06 20:16 36.40636 28.08956 29 ft 14 kts 250°
2026-05-06 20:16 36.40624 28.08918 29 ft 15 kts 250°
2026-05-06 20:17 36.41163 28.10741 141 ft 131 kts 249°
2026-05-06 20:17 36.41775 28.12674 270 ft 130 kts 250°
2026-05-06 20:17 36.41429 28.11614 246 ft 133 kts 246°
2026-05-06 20:18 36.41105 28.10539 102 ft 129 kts 249°
2026-05-06 20:18 36.40810 28.09548 31 ft 110 kts 249°
2026-05-06 20:18 36.40646 28.08990 29 ft 16 kts 250°
2026-05-06 20:18 36.40624 28.08918 29 ft 15 kts 250°